Regional Weather Roundup
Issued by NWS New Orleans/Baton Rouge, LA

Home | Current Version | Previous Version | Text Only | Print | Product List | Glossary Off
Versions: 1 2 3 4 5 6 7 8 9 10 11 12 13 14 15 16 17 18 19 20 21 22 23 24 25 26 27 28 29 30 31 32 33 34 35 36 37 38 39 40 41 42 43 44 45 46 47 48 49 50

613
ASUS44 KLIX 310701
RWRLIX
NEW ORLEANS REGIONAL WEATHER ROUNDUP
NATIONAL WEATHER SERVICE NEW ORLEANS LA
200 AM CDT FRI OCT 31 2014

NOTE: "FAIR" INDICATES FEW OR NO CLOUDS BELOW 12,000 FEET WITH NO
      SIGNIFICANT WEATHER AND/OR OBSTRUCTIONS TO VISIBILITY.
      SKY/WX - SKY CONDITION AND SIGNIFICANT WEATHER.
      TMP - AIR TEMPERATURE.     DP    - DEWPOINT TEMPERATURE.
      RH  - RELATIVE HUMIDITY.   PRES  - PRESSURE.
      HI  - HEAT INDEX.          WCI   - WIND CHILL INDEX.

*  THESE STATIONS ARE NOT NWS OR FAA STATIONS AND ARE NOT UNDER
   NWS QUALITY CONTROL.

LAZ038-040-048-061>063-065>067-069-310800-
SOUTHEAST LOUISIANA

CITY           SKY/WX    TMP DP  RH WIND       PRES   REMARKS
N.O. AUDUBON     N/A     59  56  90 MISG        N/A
N.O. INTL ARPT CLEAR     58  49  72 NW3       30.05S
N.O. LAKEFRONT CLEAR     67  48  50 N9        30.05S
N.O. DOWNTOWN*   N/A     63  45  51 CALM      30.05S
SLIDELL        CLEAR     46  43  89 N3        30.04F
BATON ROUGE    CLEAR     50  46  86 CALM      30.07S
BOOTHVILLE     CLEAR     65  50  58 N5        30.03S
BELLE CHASSE   CLEAR     50  47  89 CALM      30.04S
BOGALUSA*        N/A     46  42  88 CALM      30.07S
NEW ROADS*     PTSUNNY   48  47  94 CALM      30.07F
GONZALES*        N/A     50  50  99 N3        30.06S
HAMMOND*       NOT AVBL
HOUMA*         CLEAR     56  48  75 NW6       30.05S
PORT FOURCHON* SUNNY     64  52  63 N9        30.07S

$$

MSZ070-080>082-310800-
SOUTHERN MISSISSIPPI

CITY           SKY/WX    TMP DP  RH WIND       PRES   REMARKS
MCCOMB         CLEAR     48  43  82 NW3       30.06F
GULFPORT       CLEAR     48  43  82 CALM      30.03F
BILOXI         CLEAR     56  45  66 NW2       30.03F
PASCAGOULA     CLEAR     41  41 100 CALM      30.03S

$$

COASTAL OBSERVATIONS
LAKE AND NEARSHORE STATIONS

STATION/POSITION TIME  TEMP    WIND        PRES    WAVE
                       AIR SEA DIR/SP/G            HT/PER
                 (UTC) (F)     (DEG/KT/KT) (MB)    (FT/S)
PASCAGOULA       0600   54     340/  6/  7 1016.3
WAVELAND YACHT   0600   61     340/  6/  7 1016.3
GRAND ISLE       0600   68 74  350/  4/  8 1017.4
SOUTHWEST PASS   0600   70 77              1016.9
NEW CANAL        0600   69 70   10/  8/ 10 1017.8
SHELL BEACH      0600   69 68  360/ 11/ 12 1017.0

OFFSHORE STATIONS

STATION/POSITION TIME  TEMP    WIND        PRES    WAVE
                       AIR SEA DIR/SP/G            HT/PER
                 (UTC) (F)     (DEG/KT/KT) (MB)    (FT/S)
64 S DAUPHIN ISL 0638   70 77  360/ 16/ 19 1016.2    3/ 5

$$




USA.gov is the U.S. government's official web portal to all federal, state and local government web resources and services.